This is the latest recevied weather packets stored in our database for station/object JA7ZQY-10. If no packets are shown the sender has not sent any weather packets the latest 10 day(s).
| Time | Temp. | Humidity | Pressure | Rain* | Wind** | Luminosity | Snow |
|---|---|---|---|---|---|---|---|
| 1777717491 | 13.33° C | 37% | 1009.8 hPa | 0 mm | - | - | - |
| 1777716890 | 13.33° C | 38% | 1009.7 hPa | 0 mm | - | - | - |
| 1777716291 | 13.33° C | 38% | 1009.7 hPa | 0 mm | - | - | - |
| 1777715691 | 13.33° C | 38% | 1009.7 hPa | 0 mm | - | - | - |
| 1777715090 | 13.33° C | 40% | 1009.5 hPa | 0 mm | - | - | - |
| 1777714492 | 13.33° C | 40% | 1009.6 hPa | 0 mm | - | - | - |
| 1777713891 | 13.33° C | 40% | 1009.6 hPa | 0 mm | - | - | - |
| 1777713291 | 13.89° C | 41% | 1009.6 hPa | 0 mm | - | - | - |
| 1777712689 | 13.89° C | 41% | 1009.6 hPa | 0 mm | - | - | - |
| 1777712090 | 13.89° C | 41% | 1009.3 hPa | 0 mm | - | - | - |
| 1777711491 | 14.44° C | 42% | 1009.1 hPa | 0 mm | - | - | - |
| 1777710889 | 14.44° C | 43% | 1009.1 hPa | 0 mm | - | - | - |
| 1777710291 | 14.44° C | 45% | 1008.9 hPa | 0 mm | - | - | - |
| 1777709690 | 15° C | 45% | 1008.8 hPa | 0 mm | - | - | - |
| 1777709089 | 15° C | 46% | 1008.8 hPa | 0 mm | - | - | - |
| 1777708491 | 15.56° C | 45% | 1008.7 hPa | 0 mm | - | - | - |
| 1777707891 | 15.56° C | 45% | 1008.2 hPa | 0 mm | - | - | - |
| 1777707289 | 15.56° C | 42% | 1008.1 hPa | 0 mm | - | - | - |
| 1777706690 | 16.11° C | 40% | 1008.2 hPa | 0 mm | - | - | - |
| 1777706091 | 16.11° C | 40% | 1007.6 hPa | 0 mm | - | - | - |
| 1777705489 | 16.11° C | 41% | 1007.5 hPa | 0 mm | - | - | - |
| 1777704890 | 16.11° C | 40% | 1007.5 hPa | 0 mm | - | - | - |
| 1777704291 | 15.56° C | 37% | 1007.2 hPa | 0 mm | - | - | - |
| 1777703690 | 16.67° C | 35% | 1007 hPa | 0 mm | - | - | - |
| 1777703090 | 16.67° C | 33% | 1006.8 hPa | 0 mm | - | - | - |
* Rain latest hour (hover to see other rain measurements)
** Current wind speed in m/s (hover to see current wind gust speed)